Location: Sungai Bunut
(2.6333°N, 113.7333°E)
Time: 19:14:11
(UTC+00:00)

Cosmos 1538 Rocket - Pass Details

Date: 16 October 2021
Orbit: 752 x 792 km, 74.0° (Epoch: 08 December)

Event Time Altitude Azimuth Distance (km) Brightness Sun altitude
Rises 21:29:52 0° 202° (SSW) 3,210 7.1 -10.4°
Reaches altitude 10° 21:32:16 10° 206° (SSW) 2,288 6.3 -9.9°
Maximum altitude 21:37:18 53° 282° (WNW) 938 4.1 -8.6°
Drops below altitude 10° 21:42:24 10° 359° (N) 2,305 6.4 -7.4°
Sets 21:44:50 0° 4° (N) 3,236 7.2 -6.8°
